QPF
0.22 0.03 0.00 0.00 0.00 0.00 0.00 0.00 0.00 0.03 0.05 0.02 0.00 0.00 0.00 0.00 0.00 0.00 0.00 0.00 0.00 0.00 0.00 0.03 0.06 0.04 0.06 0.06 0.02 0.06 0.07 0.04 0.00 0.00 0.00 0.00 0.01 0.01 0.02 0.09 0.10 0.07 0.05
0.03 0.01 0.00 0.00 0.00 0.00 0.02 0.04 0.05 0.09 0.06 0.01 0.00 0.00 0.00 0.00 0.00 0.00 0.00 0.00 0.00 0.00 0.00 0.07 0.07 0.05 0.02 0.02 0.02 0.01 0.04 0.07 0.04 0.01 0.01 0.02 0.02 0.01 0.00 0.00 0.01 0.01 0.01
0.16 0.09 0.02 0.00 0.00 0.00 0.00 0.00 0.00 0.03 0.03 0.00 0.00 0.00 0.00 0.00 0.00 0.00 0.00 0.00 0.00 0.00 0.00 0.06 0.06 0.03 0.03 0.02 0.02 0.02 0.02 0.03 0.03 0.02 0.01 0.03 0.02 0.02 0.01 0.03 0.02 0.03 0.05
0.18 0.13 0.13 0.00 0.00 0.00 0.00 0.00 0.01 0.07 0.06 0.08 0.07 0.01 0.00 0.00 0.00 0.00 0.00 0.00 0.00 0.00 0.00 0.01 0.02 0.04 0.03 0.03 0.02 0.01 0.01 0.01 0.02 0.01 0.01 0.03 0.03 0.05 0.04 0.02 0.05 0.06 0.05
0.04 0.03 0.06 0.01 0.00 0.00 0.02 0.01 0.09 0.08 0.16 0.09 0.12 0.02 0.00 0.00 0.00 0.00 0.00 0.00 0.00 0.00 0.00 0.00 0.00 0.01 0.01 0.05 0.08 0.04 0.01 0.00 0.00 0.00 0.00 0.00 0.01 0.02 0.02 0.02 0.04 0.03 0.01
0.00 0.00 0.00 0.00 0.00 0.05 0.11 0.08 0.15 0.11 0.14 0.10 0.18 0.04 0.00 0.00 0.00 0.00 0.00 0.00 0.00 0.00 0.00 0.00 0.00 0.00 0.01 0.03 0.05 0.08 0.06 0.02 0.00 0.00 0.00 0.00 0.00 0.00 0.01 0.01 0.01 0.01 0.01
0.00 0.00 0.00 0.00 0.00 0.02 0.07 0.06 0.09 0.13 0.12 0.11 0.16 0.03 0.00 0.00 0.00 0.00 0.00 0.00 0.00 0.00 0.00 0.00 0.00 0.00 0.00 0.00 0.01 0.02 0.04 0.05 0.02 0.00 0.00 0.00 0.00 0.00 0.01 0.00 0.00 0.00 0.00
0.03 0.00 0.00 0.00 0.00 0.00 0.00 0.01 0.03 0.01 0.02 0.05 0.09 0.05 0.02 0.04 0.02 0.00 0.00 0.00 0.00 0.00 0.00 0.00 0.00 0.00 0.00 0.00 0.00 0.00 0.00 0.01 0.03 0.02 0.01 0.01 0.00 0.00 0.01 0.00 0.00 0.01 0.00
0.01 0.00 0.00 0.00 0.00 0.00 0.00 0.01 0.00 0.01 0.00 0.00 0.03 0.03 0.02 0.07 0.07 0.00 0.00 0.00 0.00 0.00 0.00 0.00 0.00 0.00 0.00 0.00 0.00 0.00 0.00 0.00 0.02 0.02 0.02 0.04 0.02 0.01 0.00 0.00 0.00 0.00 0.00
0.00 0.00 0.00 0.00 0.00 0.00 0.00 0.04 0.01 0.02 0.04 0.00 0.00 0.00 0.00 0.01 0.01 0.02 0.01 0.00 0.00 0.00 0.00 0.00 0.00 0.00 0.00 0.00 0.00 0.00 0.00 0.00 0.00 0.00 0.02 0.04 0.03 0.03 0.01 0.00 0.00 0.00 0.00
0.00 0.00 0.00 0.00 0.00 0.00 0.00 0.00 0.02 0.20 0.12 0.01 0.00 0.06 0.08 0.01 0.02 0.01 0.00 0.00 0.00 0.00 0.00 0.00 0.00 0.00 0.00 0.00 0.00 0.00 0.01 0.00 0.00 0.00 0.00 0.02 0.02 0.02 0.02 0.01 0.00 0.00 0.00
0.00 0.00 0.00 0.00 0.00 0.00 0.04 0.15 0.17 0.13 0.07 0.03 0.07 0.12 0.12 0.05 0.00 0.00 0.00 0.00 0.00 0.00 0.00 0.00 0.00 0.00 0.00 0.00 0.00 0.00 0.00 0.00 0.00 0.00 0.00 0.00 0.00 0.01 0.01 0.02 0.02 0.01 0.00
0.00 0.03 0.01 0.01 0.03 0.05 0.16 0.18 0.15 0.07 0.15 0.11 0.08 0.08 0.03 0.01 0.07 0.08 0.08 0.02 0.00 0.00 0.00 0.00 0.00 0.00 0.00 0.00 0.00 0.00 0.00 0.00 0.00 0.00 0.00 0.00 0.00 0.00 0.00 0.01 0.01 0.03 0.05
0.00 0.01 0.00 0.00 0.00 0.01 0.03 0.10 0.09 0.11 0.09 0.09 0.06 0.09 0.07 0.03 0.09 0.12 0.08 0.12 0.01 0.00 0.00 0.00 0.00 0.00 0.00 0.00 0.00 0.00 0.00 0.00 0.00 0.00 0.00 0.00 0.00 0.00 0.00 0.00 0.01 0.01 0.02
0.00 0.00 0.00 0.00 0.00 0.00 0.00 0.00 0.00 0.03 0.16 0.08 0.07 0.09 0.12 0.01 0.03 0.14 0.15 0.16 0.09 0.01 0.00 0.00 0.00 0.00 0.00 0.00 0.00 0.00 0.00 0.00 0.00 0.00 0.00 0.00 0.00 0.00 0.00 0.00 0.00 0.00 0.01
0.00 0.00 0.00 0.00 0.00 0.00 0.00 0.00 0.00 0.03 0.05 0.03 0.06 0.04 0.03 0.02 0.08 0.14 0.14 0.12 0.10 0.05 0.01 0.00 0.00 0.00 0.00 0.00 0.00 0.00 0.00 0.00 0.00 0.00 0.00 0.00 0.00 0.00 0.00 0.00 0.00 0.00 0.00
0.00 0.00 0.00 0.00 0.00 0.00 0.00 0.00 0.01 0.04 0.05 0.05 0.11 0.11 0.07 0.07 0.03 0.07 0.09 0.11 0.07 0.06 0.03 0.00 0.00 0.00 0.00 0.00 0.00 0.00 0.00 0.00 0.00 0.00 0.02 0.01 0.00 0.00 0.00 0.00 0.00 0.00 0.00
0.00 0.00 0.00 0.00 0.00 0.00 0.00 0.00 0.01 0.01 0.03 0.05 0.05 0.15 0.03 0.14 0.11 0.10 0.11 0.07 0.09 0.16 0.13 0.04 0.03 0.00 0.01 0.00 0.00 0.00 0.00 0.00 0.00 0.00 0.01 0.01 0.00 0.00 0.00 0.00 0.00 0.00 0.00
0.00 0.00 0.00 0.00 0.00 0.00 0.00 0.00 0.01 0.01 0.01 0.02 0.02 0.04 0.04 0.12 0.10 0.13 0.03 0.03 0.04 0.09 0.13 0.06 0.00 0.01 0.01 0.01 0.01 0.01 0.00 0.00 0.00 0.00 0.00 0.00 0.00 0.00 0.00 0.00 0.00 0.00 0.00
0.00 0.00 0.00 0.00 0.00 0.00 0.00 0.00 0.00 0.01 0.01 0.02 0.04 0.04 0.04 0.08 0.08 0.13 0.08 0.07 0.08 0.08 0.07 0.06 0.01 0.00 0.01 0.01 0.05 0.02 0.01 0.00 0.00 0.00 0.00 0.00 0.00 0.00 0.00 0.00 0.00 0.00 0.00
0.00 0.00 0.00 0.00 0.00 0.00 0.00 0.00 0.00 0.00 0.00 0.01 0.03 0.05 0.04 0.02 0.08 0.05 0.03 0.06 0.12 0.14 0.07 0.03 0.02 0.02 0.04 0.05 0.08 0.08 0.05 0.01 0.00 0.01 0.00 0.00 0.00 0.00 0.00 0.00 0.00 0.00 0.00
0.00 0.00 0.00 0.00 0.00 0.00 0.00 0.00 0.00 0.00 0.00 0.00 0.01 0.01 0.02 0.01 0.01 0.01 0.00 0.00 0.02 0.08 0.08 0.07 0.02 0.01 0.01 0.02 0.04 0.09 0.10 0.08 0.02 0.00 0.00 0.00 0.00 0.00 0.00 0.00 0.00 0.01 0.00
0.00 0.00 0.00 0.00 0.00 0.00 0.00 0.00 0.00 0.00 0.00 0.00 0.00 0.01 0.01 0.02 0.03 0.02 0.04 0.03 0.01 0.02 0.03 0.05 0.05 0.02 0.02 0.05 0.07 0.11 0.08 0.08 0.06 0.02 0.06 0.01 0.00 0.00 0.00 0.00 0.01 0.02 0.02
0.00 0.00 0.00 0.00 0.00 0.00 0.00 0.00 0.00 0.00 0.00 0.00 0.00 0.00 0.01 0.02 0.05 0.05 0.04 0.08 0.06 0.04 0.05 0.04 0.05 0.05 0.04 0.04 0.05 0.11 0.09 0.07 0.02 0.01 0.04 0.01 0.00 0.00 0.00 0.01 0.04 0.04 0.06
0.00 0.00 0.00 0.00 0.00 0.00 0.00 0.00 0.00 0.00 0.00 0.00 0.00 0.00 0.00 0.00 0.03 0.03 0.06 0.05 0.07 0.03 0.00 0.00 0.00 0.00 0.00 0.00 0.00 0.01 0.01 0.02 0.01 0.00 0.00 0.00 0.00 0.00 0.00 0.00 0.00 0.00 0.00
0.00 0.00 0.00 0.00 0.00 0.00 0.00 0.00 0.00 0.00 0.00 0.00 0.00 0.00 0.01 0.01 0.03 0.04 0.09 0.06 0.07 0.03 0.00 0.00 0.00 0.00 0.00 0.00 0.00 0.00 0.01 0.01 0.01 0.01 0.00 0.01 0.01 0.07 0.02 0.00 0.00 0.00 0.00
MSLP
1018.14 1018.12 1018.01 1018.02 1017.43 1017.18 1017.24 1017.43 1017.52 1017.56 1017.88 1017.88 1017.53 1017.43 1017.67 1017.38 1017.24 1017.01 1016.79 1017.64 1018.35 1018.71 1018.93 1019.02 1019.09 1019.36 1019.52 1019.73 1019.94 1020.10 1020.25 1020.41 1020.61 1020.83 1020.98 1021.14 1021.27 1021.35 1021.48 1021.67 1021.84 1021.94 1022.11
1018.53 1018.58 1018.16 1017.80 1017.31 1017.12 1017.52 1017.72 1017.83 1018.01 1017.96 1017.28 1016.82 1016.94 1016.89 1016.99 1016.90 1017.04 1016.81 1016.83 1017.79 1018.24 1018.53 1018.69 1018.76 1018.94 1019.10 1019.37 1019.60 1019.73 1019.86 1019.92 1020.24 1020.34 1020.59 1020.81 1020.86 1021.05 1021.18 1021.28 1021.40 1021.58 1021.70
1018.24 1018.29 1018.17 1018.15 1017.69 1017.62 1018.17 1017.62 1017.35 1017.23 1017.50 1016.77 1016.78 1016.63 1016.55 1016.64 1016.45 1016.63 1016.74 1016.67 1016.50 1017.36 1017.79 1018.15 1018.28 1018.51 1018.59 1018.86 1019.04 1019.23 1019.36 1019.65 1019.76 1019.93 1020.09 1020.36 1020.63 1020.78 1020.87 1020.95 1021.07 1021.16 1021.29
1017.48 1017.70 1017.98 1018.08 1017.79 1018.20 1017.74 1017.22 1017.05 1017.28 1017.24 1016.82 1016.96 1016.01 1015.79 1015.84 1015.97 1016.20 1016.31 1016.09 1015.94 1015.87 1016.64 1017.01 1017.49 1017.77 1018.00 1018.25 1018.43 1018.63 1018.79 1019.05 1019.33 1019.54 1019.71 1019.87 1020.13 1020.39 1020.54 1020.67 1020.69 1020.84 1020.94
1016.69 1016.87 1016.99 1016.84 1017.47 1016.89 1017.78 1016.90 1016.91 1016.82 1017.24 1016.64 1016.88 1016.25 1015.60 1015.37 1015.30 1015.28 1015.54 1015.64 1015.56 1015.86 1015.56 1016.03 1016.64 1017.07 1017.27 1017.36 1017.71 1017.95 1018.09 1018.38 1018.65 1018.94 1019.17 1019.37 1019.60 1019.85 1020.03 1020.22 1020.36 1020.42 1020.55
1016.09 1016.37 1015.88 1016.36 1016.57 1016.66 1016.98 1016.51 1017.02 1016.71 1016.97 1016.43 1016.48 1015.67 1015.18 1015.04 1015.11 1015.06 1014.91 1014.81 1014.94 1015.06 1015.23 1015.24 1015.47 1015.75 1016.37 1016.72 1016.90 1017.03 1017.36 1017.72 1018.04 1018.33 1018.61 1018.85 1019.09 1019.35 1019.55 1019.69 1019.82 1019.96 1020.12
1016.10 1015.94 1015.68 1015.77 1016.10 1016.13 1016.43 1016.57 1016.47 1016.72 1016.42 1016.25 1016.26 1015.61 1014.62 1014.99 1014.85 1014.79 1014.70 1014.43 1014.27 1014.37 1014.26 1014.47 1014.86 1014.79 1014.84 1015.79 1016.31 1016.51 1016.78 1017.07 1017.37 1017.72 1018.01 1018.34 1018.56 1018.78 1019.06 1019.20 1019.33 1019.51 1019.71
1016.02 1015.59 1015.62 1015.56 1016.11 1015.70 1015.96 1016.11 1016.21 1015.89 1015.61 1015.35 1015.78 1014.90 1014.15 1013.90 1014.09 1014.13 1014.16 1014.15 1014.03 1013.78 1013.77 1014.06 1014.47 1014.47 1014.76 1014.56 1014.66 1015.67 1016.04 1016.39 1016.71 1017.07 1017.35 1017.67 1017.94 1018.19 1018.43 1018.63 1018.77 1018.91 1019.22
1015.22 1015.65 1015.54 1015.58 1015.85 1015.92 1015.57 1015.71 1015.65 1015.65 1015.15 1014.90 1015.24 1015.21 1014.20 1014.01 1014.04 1013.37 1013.80 1013.92 1013.89 1013.80 1013.54 1013.72 1013.81 1014.05 1014.30 1014.39 1014.50 1014.88 1015.42 1015.80 1016.13 1016.37 1016.62 1016.96 1017.28 1017.57 1017.85 1018.01 1018.23 1018.40 1018.65
1014.77 1014.67 1014.77 1014.99 1015.23 1015.35 1015.45 1015.27 1015.38 1015.44 1015.42 1014.74 1014.41 1014.12 1014.61 1014.66 1013.95 1013.06 1013.28 1013.13 1013.48 1013.50 1013.32 1013.21 1012.88 1013.32 1013.60 1013.83 1013.96 1014.12 1014.64 1015.06 1015.46 1015.75 1016.00 1016.24 1016.48 1016.75 1017.07 1017.36 1017.64 1017.90 1018.08
1014.64 1014.44 1014.39 1014.42 1014.67 1014.90 1014.91 1015.07 1014.96 1015.12 1015.36 1015.15 1014.38 1014.21 1014.95 1014.22 1014.68 1014.21 1013.06 1013.08 1012.68 1012.53 1012.85 1012.87 1012.60 1012.50 1012.79 1013.24 1013.20 1013.43 1014.20 1014.63 1014.92 1015.16 1015.39 1015.57 1015.76 1016.02 1016.23 1016.49 1016.92 1017.25 1017.46
1013.83 1013.68 1014.01 1014.21 1014.20 1014.28 1014.34 1014.62 1014.99 1015.05 1014.92 1014.70 1014.62 1014.98 1014.91 1014.88 1013.51 1013.27 1012.94 1012.71 1012.35 1011.91 1012.07 1012.54 1012.33 1012.23 1012.30 1012.55 1012.97 1013.24 1013.60 1014.01 1014.41 1014.70 1014.91 1014.93 1015.12 1015.35 1015.52 1015.80 1016.13 1016.58 1016.81
1013.88 1014.16 1014.07 1014.01 1013.94 1014.04 1014.23 1014.36 1014.54 1014.50 1014.47 1014.61 1014.51 1014.57 1013.99 1014.13 1014.36 1014.20 1014.09 1013.55 1012.45 1011.71 1011.57 1011.64 1011.79 1011.82 1011.87 1012.01 1012.17 1012.81 1013.22 1013.58 1013.84 1014.07 1014.28 1014.44 1014.58 1014.81 1014.98 1015.16 1015.41 1015.89 1016.07
1014.62 1014.77 1014.46 1014.21 1013.98 1013.93 1013.95 1013.99 1014.29 1014.05 1013.97 1013.80 1013.94 1014.09 1013.88 1013.69 1013.32 1013.76 1013.90 1013.89 1013.05 1011.96 1011.09 1011.42 1011.31 1011.37 1011.43 1011.66 1011.91 1012.67 1012.65 1013.02 1013.38 1013.64 1013.86 1014.03 1014.20 1014.31 1014.46 1014.69 1014.81 1015.05 1015.37
1015.05 1014.92 1014.64 1014.29 1014.00 1013.91 1013.83 1013.73 1013.43 1013.30 1013.45 1013.37 1013.15 1013.18 1013.38 1013.46 1012.82 1013.09 1013.67 1013.89 1013.59 1012.46 1011.32 1010.68 1010.97 1011.75 1011.69 1011.85 1012.11 1011.90 1011.93 1012.15 1012.65 1013.06 1013.36 1013.59 1013.75 1013.95 1014.03 1014.11 1014.38 1014.54 1014.69
1015.47 1015.25 1014.70 1014.28 1014.12 1013.90 1013.71 1013.60 1013.29 1012.99 1013.01 1012.62 1012.25 1012.63 1012.63 1012.56 1012.29 1012.78 1013.19 1013.37 1013.43 1013.29 1012.22 1011.74 1011.15 1011.11 1011.48 1011.47 1011.60 1011.99 1011.88 1011.93 1012.17 1012.38 1012.63 1012.92 1013.15 1013.36 1013.56 1013.70 1013.81 1014.02 1014.22
1015.61 1015.11 1014.75 1014.37 1014.01 1013.81 1013.60 1013.47 1013.37 1013.15 1012.89 1012.58 1012.32 1012.11 1012.13 1012.22 1012.06 1011.87 1012.22 1012.51 1012.68 1012.85 1012.70 1011.62 1011.82 1011.61 1011.75 1011.66 1011.60 1011.53 1011.50 1011.13 1010.96 1011.51 1011.92 1012.20 1012.41 1012.59 1012.82 1013.09 1013.17 1013.33 1013.52
1015.62 1015.20 1014.86 1014.47 1014.04 1013.64 1013.42 1013.41 1013.15 1012.66 1012.53 1012.22 1011.85 1011.66 1011.69 1011.39 1011.63 1011.76 1011.96 1011.96 1012.06 1012.07 1012.59 1012.05 1011.47 1010.83 1010.85 1011.05 1010.93 1010.74 1010.47 1009.88 1010.01 1010.38 1010.82 1011.21 1011.53 1011.83 1012.06 1012.33 1012.54 1012.64 1012.78
1015.59 1015.13 1014.71 1014.36 1014.13 1013.77 1013.40 1013.10 1012.86 1012.54 1012.14 1011.82 1011.54 1011.27 1011.12 1010.85 1011.03 1011.22 1011.24 1011.43 1011.51 1011.52 1011.73 1011.99 1011.24 1010.84 1009.99 1009.58 1009.84 1010.43 1010.42 1010.28 1010.07 1009.91 1010.32 1010.60 1010.75 1011.03 1011.22 1011.42 1011.68 1011.96 1012.21
1015.64 1015.23 1014.91 1014.55 1014.18 1013.90 1013.51 1013.10 1012.75 1012.65 1012.25 1011.56 1011.31 1011.29 1011.07 1010.85 1010.73 1010.66 1010.76 1010.65 1010.96 1011.01 1011.18 1011.41 1010.73 1010.02 1009.76 1009.18 1009.30 1009.59 1009.23 1009.40 1009.43 1009.46 1009.21 1009.34 1009.64 1010.03 1010.47 1010.70 1010.81 1011.05 1011.29
1015.72 1015.40 1014.96 1014.57 1014.19 1013.72 1012.96 1013.29 1013.17 1012.81 1012.24 1011.63 1011.10 1010.67 1010.58 1010.59 1010.76 1010.77 1010.39 1010.08 1010.29 1010.62 1010.98 1011.00 1010.78 1010.14 1009.42 1008.79 1009.06 1009.15 1008.90 1008.50 1007.96 1008.57 1008.64 1008.95 1008.99 1009.02 1009.16 1009.86 1009.93 1010.24 1010.51
1015.71 1015.37 1014.97 1014.53 1014.17 1013.67 1013.53 1013.71 1013.73 1012.90 1012.16 1011.46 1010.89 1010.26 1010.09 1010.18 1010.15 1010.20 1010.20 1010.27 1010.16 1010.12 1010.38 1010.34 1009.71 1009.24 1009.00 1009.13 1008.83 1008.66 1008.87 1008.65 1007.80 1006.60 1006.88 1007.10 1007.04 1006.92 1007.27 1007.63 1008.29 1008.86 1009.16
1015.79 1015.51 1015.17 1014.94 1014.75 1014.65 1014.29 1014.23 1013.94 1013.07 1012.11 1011.32 1011.05 1010.57 1009.76 1009.22 1009.56 1009.67 1009.47 1009.68 1009.91 1009.73 1009.93 1009.78 1009.48 1009.11 1008.70 1008.39 1008.47 1008.75 1008.62 1008.51 1008.11 1007.11 1007.76 1007.18 1006.74 1006.64 1006.46 1005.92 1006.53 1007.33 1007.97
1016.31 1015.99 1015.50 1014.94 1014.73 1014.50 1014.51 1014.15 1013.72 1012.73 1011.57 1010.91 1010.53 1010.32 1009.84 1009.35 1009.20 1009.18 1009.09 1008.87 1008.74 1008.90 1009.12 1009.33 1009.19 1009.21 1008.96 1008.95 1008.75 1008.70 1008.53 1008.41 1007.92 1007.28 1007.30 1006.89 1006.33 1006.26 1006.07 1005.27 1005.92 1006.67 1007.18
1015.90 1015.56 1015.24 1014.87 1014.66 1014.57 1014.60 1014.37 1013.78 1012.47 1010.95 1010.30 1010.00 1009.79 1009.89 1009.58 1009.13 1009.24 1009.08 1008.67 1008.65 1008.68 1008.15 1008.56 1008.88 1008.91 1008.87 1008.96 1009.05 1008.52 1008.21 1008.14 1007.50 1006.78 1006.19 1006.15 1005.83 1005.64 1005.92 1004.80 1004.92 1005.80 1006.29
1015.63 1015.39 1015.22 1014.98 1015.01 1014.77 1014.69 1014.56 1014.09 1012.40 1011.03 1010.02 1009.42 1009.31 1009.62 1010.08 1009.93 1009.80 1009.33 1008.65 1008.73 1008.51 1008.12 1008.36 1008.43 1008.21 1008.21 1007.97 1007.95 1008.06 1007.37 1007.33 1007.18 1006.70 1005.92 1006.03 1005.79 1005.95 1005.51 1004.85 1004.58 1004.40 1004.76
Thickness
5758 5757 5758 5758 5762 5765 5764 5762 5761 5761 5759 5759 5762 5763 5761 5764 5765 5767 5767 5762 5756 5753 5750 5748 5747 5743 5741 5739 5736 5734 5732 5731 5729 5727 5727 5726 5725 5725 5723 5721 5720 5721 5719
5756 5756 5758 5761 5765 5766 5764 5762 5761 5759 5760 5765 5769 5768 5768 5767 5768 5767 5768 5767 5761 5757 5753 5751 5749 5747 5745 5743 5740 5738 5737 5735 5732 5732 5730 5729 5728 5727 5726 5726 5726 5724 5723
5757 5757 5760 5759 5764 5765 5760 5764 5766 5767 5765 5770 5771 5771 5771 5770 5772 5771 5770 5769 5771 5765 5760 5756 5754 5751 5750 5747 5745 5743 5741 5739 5737 5736 5734 5732 5731 5729 5729 5728 5728 5728 5727
5762 5761 5761 5762 5764 5761 5762 5766 5769 5767 5768 5771 5769 5779 5780 5778 5777 5775 5774 5774 5775 5776 5770 5766 5762 5759 5756 5753 5751 5749 5748 5745 5742 5740 5738 5736 5735 5733 5732 5731 5731 5731 5731
5770 5770 5770 5770 5766 5770 5764 5768 5771 5772 5766 5772 5769 5777 5783 5784 5784 5783 5781 5779 5779 5776 5777 5774 5769 5765 5762 5761 5758 5755 5754 5752 5749 5746 5744 5741 5739 5737 5736 5734 5734 5734 5734
5779 5776 5780 5776 5774 5774 5772 5775 5770 5775 5770 5774 5772 5780 5786 5787 5785 5785 5786 5786 5784 5783 5780 5779 5776 5773 5770 5766 5765 5764 5762 5758 5755 5752 5750 5747 5744 5741 5739 5739 5739 5738 5737
5781 5782 5783 5782 5779 5781 5779 5779 5779 5775 5774 5778 5772 5778 5789 5787 5787 5787 5787 5789 5789 5788 5788 5785 5781 5781 5780 5774 5770 5769 5766 5764 5761 5758 5755 5752 5749 5747 5744 5743 5743 5742 5741
5781 5785 5785 5786 5782 5787 5785 5783 5781 5781 5783 5787 5774 5780 5776 5787 5791 5792 5792 5791 5791 5792 5791 5788 5784 5783 5781 5782 5781 5775 5771 5768 5765 5762 5760 5758 5755 5752 5750 5748 5748 5747 5744
5785 5784 5785 5786 5784 5784 5786 5785 5785 5782 5781 5787 5785 5776 5774 5768 5778 5795 5791 5791 5791 5791 5792 5790 5789 5787 5784 5782 5781 5778 5775 5772 5769 5767 5765 5762 5760 5758 5755 5754 5752 5750 5749
5788 5789 5789 5787 5786 5785 5784 5787 5787 5785 5782 5781 5788 5792 5786 5781 5774 5777 5789 5793 5792 5790 5793 5793 5795 5790 5788 5786 5784 5783 5779 5777 5774 5771 5769 5767 5764 5763 5761 5758 5757 5754 5753
5787 5789 5789 5788 5787 5786 5786 5784 5784 5783 5780 5778 5784 5784 5776 5784 5777 5772 5774 5778 5791 5796 5794 5793 5795 5795 5792 5788 5788 5787 5782 5778 5775 5774 5772 5771 5769 5767 5765 5764 5761 5759 5757
5793 5793 5790 5788 5788 5788 5787 5784 5780 5779 5779 5780 5780 5774 5769 5765 5778 5779 5778 5780 5782 5791 5795 5792 5793 5794 5793 5790 5787 5786 5784 5780 5777 5775 5774 5774 5772 5771 5769 5766 5764 5762 5761
5788 5786 5787 5787 5787 5786 5783 5782 5779 5778 5778 5775 5775 5773 5779 5775 5772 5770 5767 5768 5776 5787 5790 5795 5793 5792 5792 5792 5791 5786 5783 5781 5780 5778 5775 5773 5773 5772 5771 5770 5767 5764 5764
5778 5777 5781 5782 5782 5781 5780 5780 5776 5777 5778 5779 5775 5774 5775 5776 5779 5772 5767 5762 5763 5774 5785 5781 5791 5791 5790 5789 5789 5784 5782 5781 5779 5778 5775 5774 5773 5772 5771 5770 5769 5768 5766
5773 5773 5776 5778 5779 5779 5779 5780 5780 5779 5777 5777 5779 5778 5775 5775 5780 5776 5769 5763 5758 5758 5768 5782 5777 5780 5783 5783 5781 5783 5783 5782 5779 5777 5776 5774 5773 5772 5771 5771 5769 5769 5768
5766 5767 5772 5775 5775 5776 5777 5777 5777 5778 5775 5778 5781 5776 5775 5776 5778 5773 5767 5763 5761 5755 5757 5770 5776 5780 5778 5779 5778 5776 5778 5779 5779 5777 5775 5774 5773 5772 5772 5771 5770 5770 5769
5763 5766 5768 5770 5772 5772 5773 5772 5771 5772 5771 5772 5774 5774 5772 5772 5772 5772 5769 5765 5761 5757 5750 5763 5767 5771 5768 5770 5771 5772 5773 5776 5779 5776 5774 5773 5773 5772 5772 5771 5771 5771 5771
5757 5760 5761 5763 5765 5767 5768 5766 5765 5768 5767 5767 5771 5770 5769 5772 5768 5766 5763 5761 5760 5760 5749 5746 5758 5765 5767 5767 5770 5772 5774 5778 5778 5778 5777 5774 5772 5773 5773 5772 5771 5771 5771
5751 5754 5757 5758 5758 5759 5760 5761 5762 5763 5764 5765 5766 5766 5767 5768 5763 5761 5761 5758 5758 5758 5753 5746 5750 5761 5769 5775 5770 5766 5766 5768 5771 5772 5774 5773 5772 5771 5772 5772 5772 5771 5771
5744 5746 5747 5749 5751 5752 5754 5757 5757 5756 5756 5760 5761 5759 5759 5759 5759 5758 5756 5757 5754 5753 5749 5746 5751 5758 5762 5769 5768 5761 5764 5768 5767 5769 5772 5773 5772 5771 5769 5769 5771 5771 5770
5736 5737 5739 5741 5743 5746 5751 5746 5745 5746 5747 5750 5753 5755 5755 5754 5749 5749 5752 5754 5750 5746 5742 5740 5742 5749 5755 5758 5754 5757 5758 5764 5773 5769 5768 5768 5769 5771 5771 5767 5767 5767 5767
5729 5730 5731 5732 5733 5737 5736 5732 5731 5735 5738 5741 5742 5746 5748 5746 5745 5742 5742 5741 5743 5741 5737 5737 5744 5746 5749 5748 5751 5752 5750 5748 5752 5777 5771 5769 5777 5777 5776 5774 5772 5769 5769
5720 5720 5721 5721 5720 5719 5720 5718 5719 5724 5728 5731 5731 5732 5737 5743 5739 5737 5737 5734 5732 5734 5733 5735 5734 5738 5741 5746 5746 5742 5742 5742 5743 5758 5754 5754 5767 5767 5773 5779 5779 5775 5770
5704 5704 5707 5710 5709 5709 5706 5707 5708 5714 5721 5723 5724 5723 5725 5728 5729 5728 5727 5728 5729 5728 5727 5728 5730 5731 5735 5736 5737 5736 5736 5738 5744 5750 5750 5745 5757 5757 5765 5774 5773 5770 5767
5698 5698 5699 5700 5699 5698 5695 5694 5696 5705 5713 5715 5716 5716 5713 5713 5715 5712 5713 5715 5714 5713 5722 5720 5719 5721 5723 5723 5724 5728 5727 5725 5728 5739 5750 5748 5750 5753 5753 5768 5772 5766 5763
5689 5689 5688 5688 5684 5685 5682 5681 5681 5693 5700 5705 5708 5707 5700 5694 5693 5693 5697 5701 5697 5699 5706 5709 5711 5715 5717 5723 5720 5721 5726 5720 5720 5725 5741 5738 5743 5740 5742 5756 5762 5769 5765